contact:dominique.lefevre@mio.osupytheas.fr, maurice.libes@osupytheas.fr, didier.mallarino@osupytheas.fr
Project:EMSO http://www.emso-fr.org/EMSO-France
Depth: 2436.0 m
Title:EMSO Ligure Ouest : Data MII capteur AQUADOPP
Date,Latitude,Longitude,X_East,Y_North,Z_Up,Amplitude_X,Amplitude_Y,Amplitude_Z,Batterie,SoundSpeed,Heading,Pitch,Roll,Pressure,TIS,Speed,Direction
, degrees North, degrees East, m.s-1, m.s-1,m.s-1, 1, 1, 1, Volt, m.s-1, degree, degree, degree, dbar, degree_C, m.s-1, degree
2023-03-26T00:04:03,42.805,6.029,0.047,0.01,0.002,103.0,104.0,101.0,13.4,1505.2,337.0,-0.8,1.8,2471.354,13.28,0.048,78.0
2023-03-26T00:07:03,42.805,6.029,0.052,0.006,0.004,103.0,104.0,102.0,13.4,1505.2,328.2,-0.7,1.8,2471.385,13.28,0.052,83.4
2023-03-26T00:10:03,42.805,6.029,0.036,0.001,0.015,104.0,101.0,101.0,13.4,1505.2,331.9,-0.8,1.8,2471.343,13.28,0.036,88.4
2023-03-26T00:13:03,42.805,6.029,0.063,-0.031,-0.006,102.0,103.0,100.0,13.4,1505.2,338.2,-0.8,1.8,2471.331,13.28,0.07,116.2
2023-03-26T00:16:03,42.805,6.029,0.049,0.009,0.002,103.0,103.0,100.0,13.3,1505.2,317.3,-0.8,1.8,2471.305,13.28,0.049,79.6
2023-03-26T00:19:03,42.805,6.029,0.058,0.009,-0.008,105.0,104.0,101.0,13.4,1505.2,330.5,-0.8,1.8,2471.293,13.28,0.058,81.2
2023-03-26T00:22:03,42.805,6.029,0.019,0.021,-0.025,102.0,105.0,102.0,13.4,1505.2,327.5,-0.7,1.8,2471.334,13.28,0.028,42.1
2023-03-26T00:25:03,42.805,6.029,0.041,-0.002,-0.008,102.0,105.0,100.0,13.3,1505.2,332.1,-0.8,1.8,2471.348,13.28,0.041,92.8
2023-03-26T00:28:03,42.805,6.029,0.055,-0.003,-0.033,102.0,105.0,101.0,13.4,1505.2,322.9,-0.8,1.8,2471.295,13.29,0.055,93.1
2023-03-26T00:31:03,42.805,6.029,0.064,0.004,-0.004,103.0,104.0,101.0,13.3,1505.2,334.2,-0.8,1.8,2471.28,13.29,0.064,86.4
2023-03-26T00:34:03,42.805,6.029,0.043,0.003,-0.001,102.0,103.0,101.0,13.4,1505.2,322.3,-0.7,1.8,2471.287,13.29,0.043,86.0
2023-03-26T00:37:03,42.805,6.029,0.059,-0.013,0.011,103.0,105.0,102.0,13.4,1505.2,337.0,-0.7,1.8,2471.312,13.29,0.06,102.4
2023-03-26T00:40:03,42.805,6.029,0.06,-0.005,-0.026,103.0,105.0,102.0,13.4,1505.2,329.3,-0.8,1.8,2471.29,13.29,0.06,94.8
2023-03-26T00:43:03,42.805,6.029,0.052,-0.027,-0.032,103.0,105.0,101.0,13.3,1505.2,328.4,-0.8,1.8,2471.307,13.29,0.058,117.4
2023-03-26T00:46:03,42.805,6.029,0.059,-0.001,-0.007,104.0,105.0,102.0,13.4,1505.2,323.1,-0.8,1.8,2471.263,13.29,0.059,91.0
2023-03-26T00:49:03,42.805,6.029,0.069,-0.008,0.001,103.0,106.0,101.0,13.4,1505.2,327.0,-0.8,1.8,2471.3,13.29,0.069,96.6
2023-03-26T00:52:03,42.805,6.029,0.057,-0.016,-0.029,103.0,105.0,100.0,13.3,1505.2,334.9,-0.8,1.9,2471.255,13.29,0.059,105.7
2023-03-26T00:55:03,42.805,6.029,0.044,-0.002,0.047,103.0,104.0,101.0,13.3,1505.2,339.4,-0.7,1.8,2471.288,13.28,0.044,92.6
2023-03-26T00:58:03,42.805,6.029,0.045,0.016,-0.001,103.0,105.0,102.0,13.4,1505.2,320.1,-0.7,1.8,2471.27,13.29,0.047,70.4
2023-03-26T01:04:03,42.805,6.029,0.038,0.023,0.002,105.0,107.0,103.0,13.4,1505.2,325.3,-0.8,1.8,2471.3,13.28,0.044,58.8
2023-03-26T01:07:03,42.805,6.029,0.063,-0.015,-0.008,103.0,106.0,102.0,13.4,1505.2,334.8,-0.7,1.8,2471.297,13.28,0.064,103.4
2023-03-26T01:10:03,42.805,6.029,0.049,-0.006,0.01,103.0,105.0,101.0,13.3,1505.2,339.9,-0.7,1.8,2471.352,13.28,0.049,97.0
2023-03-26T01:13:03,42.805,6.029,0.059,-0.011,0.003,102.0,102.0,102.0,13.4,1505.2,340.2,-0.8,1.8,2471.296,13.28,0.06,100.6
2023-03-26T01:16:03,42.805,6.029,0.057,0.003,-0.038,102.0,104.0,102.0,13.3,1505.2,319.9,-0.8,1.8,2471.32,13.28,0.057,87.0
2023-03-26T01:19:03,42.805,6.029,0.046,-0.004,-0.017,102.0,104.0,102.0,13.4,1505.2,326.3,-0.8,1.8,2471.31,13.28,0.046,95.0
2023-03-26T01:22:03,42.805,6.029,0.045,0.009,0.003,102.0,105.0,102.0,13.4,1505.2,328.2,-0.8,1.8,2471.292,13.28,0.045,78.7
2023-03-26T01:25:03,42.805,6.029,0.022,0.0,-0.025,103.0,103.0,101.0,13.4,1505.2,331.0,-0.8,1.8,2471.301,13.28,0.022,90.0
2023-03-26T01:28:03,42.805,6.029,0.059,-0.008,0.021,103.0,103.0,103.0,13.4,1505.2,328.8,-0.8,1.8,2471.287,13.28,0.059,97.7
2023-03-26T01:31:03,42.805,6.029,0.041,-0.004,-0.003,103.0,103.0,102.0,13.4,1505.2,330.1,-0.8,1.8,2471.237,13.28,0.041,95.6
2023-03-26T01:34:03,42.805,6.029,0.072,0.016,-0.005,103.0,105.0,101.0,13.4,1505.2,329.0,-0.8,1.8,2471.261,13.29,0.073,77.5
2023-03-26T01:37:03,42.805,6.029,0.048,-0.003,-0.029,103.0,104.0,101.0,13.4,1505.2,322.3,-0.8,1.8,2471.284,13.28,0.048,93.6
2023-03-26T01:40:03,42.805,6.029,0.067,0.018,0.008,103.0,103.0,103.0,13.4,1505.2,324.3,-0.8,1.8,2471.285,13.28,0.069,75.0
2023-03-26T01:43:03,42.805,6.029,0.053,-0.011,0.007,103.0,103.0,102.0,13.4,1505.2,326.0,-0.8,1.8,2471.233,13.28,0.054,101.7
2023-03-26T01:46:03,42.805,6.029,0.049,-0.014,0.023,104.0,104.0,101.0,13.4,1505.2,339.4,-0.8,1.8,2471.212,13.29,0.05,105.9
2023-03-26T01:49:03,42.805,6.029,0.052,0.0,-0.014,104.0,106.0,100.0,13.4,1505.2,336.5,-0.8,1.8,2471.223,13.29,0.052,90.0
2023-03-26T01:52:03,42.805,6.029,0.046,-0.007,-0.018,101.0,105.0,100.0,13.4,1505.2,329.0,-0.8,1.8,2471.228,13.28,0.046,98.7
2023-03-26T01:55:03,42.805,6.029,0.053,-0.009,0.005,102.0,105.0,100.0,13.3,1505.2,328.3,-0.8,1.8,2471.232,13.28,0.053,99.6
2023-03-26T01:58:03,42.805,6.029,0.04,0.031,0.02,104.0,105.0,101.0,13.3,1505.2,317.3,-0.8,1.8,2471.262,13.28,0.05,52.2
2023-03-26T02:04:03,42.805,6.029,0.05,-0.004,-0.013,103.0,104.0,101.0,13.4,1505.2,335.5,-0.8,1.8,2471.266,13.28,0.05,94.6
2023-03-26T02:07:03,42.805,6.029,0.045,-0.01,0.006,102.0,105.0,101.0,13.4,1505.2,340.9,-0.8,1.8,2471.288,13.28,0.046,102.5
2023-03-26T02:10:03,42.805,6.029,0.061,0.006,-0.016,103.0,104.0,101.0,13.4,1505.2,319.6,-0.7,1.8,2471.26,13.28,0.061,84.4
2023-03-26T02:13:03,42.805,6.029,0.053,0.026,0.025,102.0,107.0,101.0,13.4,1505.2,318.9,-0.7,1.8,2471.258,13.28,0.059,63.9
2023-03-26T02:16:03,42.805,6.029,0.055,0.014,-0.001,103.0,104.0,102.0,13.4,1505.2,326.0,-0.8,1.8,2471.291,13.28,0.056,75.7
2023-03-26T02:19:03,42.805,6.029,0.032,0.027,0.007,103.0,105.0,101.0,13.4,1505.2,331.0,-0.8,1.8,2471.245,13.28,0.041,49.8
2023-03-26T02:22:03,42.805,6.029,0.071,0.009,0.014,101.0,105.0,101.0,13.3,1505.2,326.8,-0.8,1.8,2471.231,13.28,0.071,82.8
2023-03-26T02:25:03,42.805,6.029,0.057,-0.007,-0.008,102.0,105.0,102.0,13.3,1505.2,337.3,-0.7,1.8,2471.221,13.28,0.057,97.0
2023-03-26T02:28:03,42.805,6.029,0.023,0.022,-0.032,103.0,105.0,100.0,13.4,1505.2,320.7,-0.8,1.8,2471.237,13.28,0.031,46.3
2023-03-26T02:31:03,42.805,6.029,0.054,0.003,-0.007,103.0,104.0,101.0,13.4,1505.2,327.2,-0.8,1.8,2471.262,13.29,0.054,86.8
2023-03-26T02:34:03,42.805,6.029,0.022,0.015,0.008,104.0,105.0,100.0,13.4,1505.2,324.8,-0.7,1.8,2471.221,13.28,0.026,55.7
2023-03-26T02:37:03,42.805,6.029,0.073,-0.003,-0.021,102.0,105.0,101.0,13.4,1505.2,336.1,-0.8,1.8,2471.223,13.28,0.073,92.4
2023-03-26T02:40:03,42.805,6.029,0.05,-0.005,-0.027,102.0,104.0,100.0,13.4,1505.2,336.5,-0.7,1.8,2471.272,13.29,0.05,95.7
2023-03-26T02:43:03,42.805,6.029,0.074,-0.002,0.007,104.0,105.0,100.0,13.4,1505.2,322.7,-0.8,1.8,2471.236,13.28,0.074,91.5
2023-03-26T02:46:03,42.805,6.029,0.053,0.008,0.007,103.0,104.0,101.0,13.4,1505.2,332.9,-0.8,1.8,2471.223,13.29,0.053,81.4
2023-03-26T02:49:03,42.805,6.029,0.058,-0.016,0.001,102.0,106.0,101.0,13.4,1505.2,339.9,-0.8,1.8,2471.229,13.29,0.06,105.4
2023-03-26T02:52:03,42.805,6.029,0.059,-0.001,-0.017,103.0,104.0,101.0,13.4,1505.2,322.9,-0.7,1.8,2471.234,13.28,0.059,91.0
2023-03-26T02:55:03,42.805,6.029,0.056,0.014,0.028,102.0,106.0,100.0,13.3,1505.2,322.7,-0.8,1.8,2471.235,13.28,0.057,76.0
2023-03-26T02:58:03,42.805,6.029,0.031,0.008,-0.013,102.0,105.0,100.0,13.4,1505.2,324.5,-0.8,1.8,2471.219,13.29,0.032,75.5
2023-03-26T03:04:03,42.805,6.029,0.044,-0.015,-0.028,102.0,104.0,102.0,13.4,1505.2,330.8,-0.8,1.8,2471.275,13.28,0.046,108.8
2023-03-26T03:07:03,42.805,6.029,0.063,0.011,0.008,103.0,105.0,100.0,13.4,1505.2,335.2,-0.7,1.8,2471.239,13.28,0.063,80.1
2023-03-26T03:10:03,42.805,6.029,0.06,-0.007,0.022,104.0,106.0,101.0,13.3,1505.2,342.8,-0.8,1.9,2471.223,13.28,0.06,96.7
2023-03-26T03:13:03,42.805,6.029,0.034,0.0,-0.048,103.0,106.0,101.0,13.3,1505.2,324.0,-0.8,1.8,2471.205,13.28,0.034,90.0
2023-03-26T03:16:03,42.805,6.029,0.026,0.021,-0.022,101.0,105.0,101.0,13.4,1505.2,334.8,-0.8,1.8,2471.24,13.28,0.033,51.1
2023-03-26T03:19:03,42.805,6.029,0.046,0.015,-0.006,103.0,105.0,101.0,13.4,1505.2,333.0,-0.8,1.8,2471.227,13.28,0.048,71.9
2023-03-26T03:22:03,42.805,6.029,0.044,-0.006,0.007,103.0,104.0,101.0,13.4,1505.2,325.3,-0.8,1.8,2471.196,13.28,0.044,97.8
2023-03-26T03:25:03,42.805,6.029,0.036,0.021,-0.009,103.0,104.0,101.0,13.3,1505.2,340.5,-0.8,1.8,2471.244,13.28,0.041,59.7
2023-03-26T03:28:03,42.805,6.029,0.026,0.011,0.0,102.0,107.0,100.0,13.3,1505.2,317.8,-0.8,1.8,2471.233,13.29,0.028,67.1
2023-03-26T03:31:03,42.805,6.029,0.047,0.019,-0.01,103.0,106.0,101.0,13.3,1505.2,333.9,-0.8,1.8,2471.219,13.29,0.05,68.0
2023-03-26T03:34:03,42.805,6.029,0.028,0.003,-0.027,103.0,104.0,101.0,13.3,1505.2,329.1,-0.8,1.8,2471.227,13.28,0.028,83.9
2023-03-26T03:37:03,42.805,6.029,0.044,0.001,0.003,101.0,105.0,102.0,13.4,1505.2,342.5,-0.8,1.8,2471.201,13.29,0.044,88.7
2023-03-26T03:40:03,42.805,6.029,0.052,0.012,0.021,103.0,105.0,101.0,13.3,1505.2,322.2,-0.8,1.8,2471.188,13.29,0.053,77.0
2023-03-26T03:43:03,42.805,6.029,0.033,0.024,-0.005,103.0,107.0,100.0,13.4,1505.2,320.7,-0.8,1.8,2471.223,13.29,0.04,54.0
2023-03-26T03:46:03,42.805,6.029,0.076,-0.004,0.012,104.0,107.0,101.0,13.3,1505.2,339.9,-0.8,1.8,2471.192,13.29,0.076,93.0
2023-03-26T03:49:03,42.805,6.029,0.028,0.021,0.0,104.0,107.0,100.0,13.4,1505.2,316.7,-0.8,1.8,2471.186,13.29,0.035,53.1
2023-03-26T03:52:03,42.805,6.029,0.032,0.007,-0.027,105.0,105.0,101.0,13.4,1505.2,332.0,-0.8,1.8,2471.177,13.28,0.032,77.7
2023-03-26T03:55:03,42.805,6.029,0.053,0.009,-0.011,103.0,106.0,101.0,13.3,1505.2,323.5,-0.8,1.8,2471.219,13.29,0.053,80.4
2023-03-26T03:58:03,42.805,6.029,0.04,0.005,-0.034,103.0,105.0,101.0,13.4,1505.2,322.0,-0.8,1.8,2471.199,13.28,0.04,82.9
2023-03-26T04:04:03,42.805,6.029,0.061,0.015,0.017,102.0,106.0,101.0,13.4,1505.2,321.3,-0.7,1.9,2471.222,13.28,0.062,76.2
2023-03-26T04:07:03,42.805,6.029,0.056,0.004,0.002,103.0,107.0,101.0,13.4,1505.2,335.1,-0.8,1.8,2471.229,13.28,0.056,85.9
2023-03-26T04:10:03,42.805,6.029,0.023,0.022,-0.021,104.0,104.0,100.0,13.4,1505.2,339.1,-0.7,1.8,2471.213,13.28,0.031,46.3
2023-03-26T04:13:03,42.805,6.029,0.052,0.003,0.018,102.0,106.0,102.0,13.4,1505.2,333.9,-0.8,1.8,2471.193,13.28,0.052,86.7
2023-03-26T04:16:03,42.805,6.029,0.072,0.003,-0.016,103.0,105.0,102.0,13.4,1505.2,323.8,-0.8,1.8,2471.229,13.28,0.072,87.6
2023-03-26T04:19:03,42.805,6.029,0.053,0.004,-0.002,104.0,107.0,101.0,13.4,1505.2,339.1,-0.8,1.8,2471.249,13.28,0.053,85.7
2023-03-26T04:22:03,42.805,6.029,0.008,0.018,-0.04,103.0,107.0,100.0,13.3,1505.2,317.3,-0.7,1.8,2471.198,13.28,0.019,24.0
2023-03-26T04:25:03,42.805,6.029,0.053,-0.003,-0.016,102.0,106.0,101.0,13.4,1505.2,333.4,-0.8,1.8,2471.206,13.28,0.053,93.2
2023-03-26T04:28:03,42.805,6.029,0.051,-0.023,-0.049,101.0,106.0,102.0,13.4,1505.2,327.2,-0.8,1.8,2471.204,13.29,0.055,114.3
2023-03-26T04:31:03,42.805,6.029,0.029,-0.003,-0.026,103.0,107.0,102.0,13.3,1505.2,327.7,-0.7,1.8,2471.191,13.29,0.029,95.9
2023-03-26T04:34:03,42.805,6.029,0.047,0.004,0.023,104.0,107.0,101.0,13.3,1505.2,326.5,-0.8,1.8,2471.183,13.29,0.047,85.1
2023-03-26T04:37:03,42.805,6.029,0.061,0.0,0.011,102.0,108.0,102.0,13.3,1505.2,332.2,-0.8,1.8,2471.228,13.29,0.06,90.0
2023-03-26T04:40:03,42.805,6.029,0.054,-0.014,-0.008,102.0,106.0,101.0,13.4,1505.2,328.6,-0.8,1.8,2471.192,13.29,0.055,104.5
2023-03-26T04:43:03,42.805,6.029,0.069,0.026,0.004,103.0,106.0,101.0,13.4,1505.2,341.2,-0.7,1.8,2471.193,13.29,0.073,69.4
2023-03-26T04:46:03,42.805,6.029,0.033,0.023,0.003,103.0,107.0,101.0,13.4,1505.2,318.5,-0.8,1.8,2471.18,13.28,0.04,55.1
2023-03-26T04:49:03,42.805,6.029,0.064,-0.004,0.007,102.0,107.0,101.0,13.4,1505.2,330.9,-0.8,1.8,2471.204,13.29,0.064,93.6
2023-03-26T04:52:03,42.805,6.029,0.035,-0.016,-0.041,102.0,106.0,101.0,13.3,1505.2,343.9,-0.8,1.8,2471.23,13.29,0.038,114.6
2023-03-26T04:55:03,42.805,6.029,0.049,0.031,-0.007,101.0,107.0,102.0,13.4,1505.2,327.7,-0.7,1.8,2471.194,13.29,0.057,57.7
2023-03-26T04:58:03,42.805,6.029,0.04,0.02,-0.035,104.0,104.0,101.0,13.4,1505.2,324.5,-0.8,1.8,2471.201,13.28,0.044,63.4
2023-03-26T05:04:03,42.805,6.029,0.02,0.013,-0.003,103.0,106.0,101.0,13.4,1505.2,339.5,-0.7,1.8,2471.258,13.28,0.023,57.0
2023-03-26T05:07:03,42.805,6.029,0.064,0.007,0.015,103.0,106.0,100.0,13.4,1505.2,324.4,-0.8,1.8,2471.199,13.28,0.064,83.8
2023-03-26T05:10:03,42.805,6.029,0.049,0.014,-0.004,102.0,106.0,101.0,13.4,1505.2,318.6,-0.8,1.8,2471.231,13.28,0.05,74.1
2023-03-26T05:13:03,42.805,6.029,0.058,0.017,-0.004,102.0,106.0,100.0,13.3,1505.2,327.1,-0.8,1.8,2471.228,13.28,0.06,73.7
2023-03-26T05:16:03,42.805,6.029,0.039,0.004,-0.023,102.0,106.0,100.0,13.3,1505.2,325.5,-0.7,1.8,2471.199,13.28,0.039,84.1
2023-03-26T05:19:03,42.805,6.029,0.019,0.005,-0.021,103.0,105.0,100.0,13.4,1505.2,339.1,-0.8,1.8,2471.2,13.28,0.019,75.3
2023-03-26T05:22:03,42.805,6.029,0.026,0.017,-0.032,103.0,106.0,100.0,13.4,1505.2,323.9,-0.8,1.8,2471.182,13.28,0.031,56.8
2023-03-26T05:25:03,42.805,6.029,0.048,0.016,-0.01,103.0,107.0,100.0,13.4,1505.2,326.5,-0.8,1.8,2471.236,13.28,0.05,71.6
2023-03-26T05:28:03,42.805,6.029,0.041,0.024,-0.012,102.0,105.0,102.0,13.4,1505.2,322.9,-0.7,1.8,2471.217,13.29,0.047,59.7
2023-03-26T05:31:03,42.805,6.029,0.056,-0.004,-0.009,103.0,106.0,100.0,13.4,1505.2,334.4,-0.8,1.8,2471.203,13.29,0.056,94.1
2023-03-26T05:34:03,42.805,6.029,0.019,0.012,-0.024,103.0,105.0,101.0,13.4,1505.2,322.4,-0.8,1.8,2471.227,13.29,0.022,57.7
2023-03-26T05:37:03,42.805,6.029,0.053,0.002,0.01,102.0,107.0,100.0,13.4,1505.2,334.6,-0.7,1.8,2471.205,13.29,0.053,87.8
2023-03-26T05:40:03,42.805,6.029,0.029,0.015,-0.005,105.0,106.0,100.0,13.4,1505.2,333.9,-0.8,1.8,2471.226,13.29,0.032,62.6
2023-03-26T05:43:03,42.805,6.029,0.059,0.019,0.006,103.0,106.0,100.0,13.4,1505.2,324.9,-0.8,1.8,2471.203,13.29,0.061,72.2
2023-03-26T05:46:03,42.805,6.029,0.041,-0.029,-0.066,103.0,106.0,99.0,13.4,1505.2,340.5,-0.8,1.8,2471.236,13.29,0.05,125.3
2023-03-26T05:49:03,42.805,6.029,0.059,0.003,0.015,102.0,105.0,101.0,13.4,1505.2,322.2,-0.8,1.8,2471.182,13.29,0.059,87.1
2023-03-26T05:52:03,42.805,6.029,0.042,0.033,0.006,104.0,106.0,101.0,13.4,1505.2,334.3,-0.8,1.8,2471.186,13.29,0.053,51.8
2023-03-26T05:55:03,42.805,6.029,0.04,0.015,-0.021,103.0,107.0,101.0,13.4,1505.2,328.3,-0.8,1.8,2471.234,13.29,0.042,69.4
2023-03-26T05:58:03,42.805,6.029,0.08,0.004,0.033,104.0,107.0,101.0,13.3,1505.2,341.5,-0.7,1.8,2471.203,13.29,0.08,87.1
2023-03-26T06:04:03,42.805,6.029,0.018,0.011,-0.032,103.0,106.0,101.0,13.4,1505.2,333.4,-0.8,1.8,2471.257,13.28,0.021,58.6
2023-03-26T06:07:03,42.805,6.029,0.019,0.021,-0.008,104.0,108.0,99.0,13.4,1505.2,335.8,-0.8,1.8,2471.226,13.28,0.028,42.1
2023-03-26T06:10:03,42.805,6.029,0.064,0.004,0.012,103.0,107.0,101.0,13.4,1505.2,338.7,-0.8,1.8,2471.238,13.28,0.064,86.4
2023-03-26T06:13:03,42.805,6.029,0.053,0.008,-0.001,105.0,106.0,100.0,13.4,1505.2,323.6,-0.7,1.8,2471.234,13.28,0.053,81.4
2023-03-26T06:16:03,42.805,6.029,0.032,0.012,0.019,104.0,106.0,100.0,13.4,1505.2,325.3,-0.8,1.9,2471.268,13.28,0.034,69.4
2023-03-26T06:19:03,42.805,6.029,0.014,0.019,-0.046,103.0,107.0,100.0,13.3,1505.2,325.5,-0.8,1.9,2471.28,13.29,0.023,36.4
2023-03-26T06:22:03,42.805,6.029,0.058,0.022,0.017,103.0,107.0,100.0,13.4,1505.2,331.9,-0.7,1.8,2471.211,13.29,0.062,69.2
2023-03-26T06:25:03,42.805,6.029,0.056,-0.003,-0.017,104.0,106.0,102.0,13.4,1505.2,343.3,-0.8,1.8,2471.171,13.29,0.056,93.1
2023-03-26T06:28:03,42.805,6.029,0.023,0.027,0.025,104.0,107.0,101.0,13.3,1505.2,320.8,-0.8,1.8,2471.243,13.29,0.035,40.4
2023-03-26T06:31:03,42.805,6.029,0.047,0.019,0.014,104.0,105.0,103.0,13.4,1505.2,332.9,-0.8,1.8,2471.211,13.29,0.05,68.0
2023-03-26T06:34:03,42.805,6.029,0.04,0.007,0.015,103.0,107.0,101.0,13.4,1505.2,321.7,-0.8,1.8,2471.267,13.29,0.04,80.1
2023-03-26T06:37:03,42.805,6.029,0.047,0.024,-0.02,104.0,106.0,102.0,13.4,1505.2,330.5,-0.8,1.8,2471.234,13.29,0.052,63.0
2023-03-26T06:40:03,42.805,6.029,0.049,0.012,0.006,104.0,107.0,101.0,13.3,1505.2,323.2,-0.7,1.8,2471.212,13.29,0.05,76.2
2023-03-26T06:43:03,42.805,6.029,0.029,0.015,-0.004,105.0,108.0,102.0,13.3,1505.2,335.1,-0.7,1.8,2471.191,13.29,0.032,62.6
2023-03-26T06:46:03,42.805,6.029,0.035,0.024,0.031,105.0,107.0,101.0,13.4,1505.2,320.4,-0.8,1.8,2471.214,13.29,0.042,55.6
2023-03-26T06:49:03,42.805,6.029,0.025,0.038,0.014,105.0,106.0,102.0,13.3,1505.2,319.0,-0.7,1.8,2471.263,13.29,0.045,33.3
2023-03-26T06:52:03,42.805,6.029,0.047,0.005,0.008,105.0,106.0,103.0,13.4,1505.2,324.8,-0.7,1.8,2471.225,13.29,0.047,83.9
2023-03-26T06:55:03,42.805,6.029,0.052,0.025,0.005,104.0,107.0,101.0,13.3,1505.2,321.3,-0.8,1.8,2471.265,13.29,0.057,64.3
2023-03-26T06:58:03,42.805,6.029,0.065,0.01,0.016,104.0,109.0,102.0,13.4,1505.2,339.8,-0.8,1.8,2471.232,13.29,0.065,81.3
2023-03-26T07:04:03,42.805,6.029,0.021,0.025,-0.019,103.0,107.0,102.0,13.3,1505.2,323.3,-0.8,1.8,2471.332,13.28,0.032,40.0
2023-03-26T07:07:03,42.805,6.029,0.07,0.024,0.039,105.0,107.0,101.0,13.4,1505.2,326.3,-0.8,1.8,2471.271,13.28,0.073,71.1
2023-03-26T07:10:03,42.805,6.029,0.05,0.013,0.001,104.0,107.0,102.0,13.4,1505.2,329.9,-0.8,1.8,2471.293,13.28,0.051,75.4
2023-03-26T07:13:03,42.805,6.029,0.047,0.03,0.012,105.0,106.0,102.0,13.3,1505.2,325.4,-0.8,1.8,2471.296,13.28,0.055,57.4
2023-03-26T07:16:03,42.805,6.029,0.05,0.026,0.027,104.0,106.0,102.0,13.4,1505.2,322.2,-0.8,1.8,2471.282,13.29,0.056,62.5
2023-03-26T07:19:03,42.805,6.029,0.043,0.018,-0.022,104.0,107.0,102.0,13.4,1505.2,328.5,-0.7,1.8,2471.278,13.29,0.046,67.3
2023-03-26T07:22:03,42.805,6.029,0.039,0.011,0.001,104.0,107.0,101.0,13.4,1505.2,335.4,-0.8,1.8,2471.279,13.29,0.04,74.3
2023-03-26T07:25:03,42.805,6.029,0.065,0.018,0.002,104.0,108.0,101.0,13.3,1505.2,327.1,-0.8,1.8,2471.249,13.29,0.067,74.5
2023-03-26T07:28:03,42.805,6.029,0.052,0.026,0.007,104.0,107.0,101.0,13.4,1505.2,324.5,-0.7,1.8,2471.3,13.29,0.058,63.4
2023-03-26T07:31:03,42.805,6.029,0.06,0.02,0.015,104.0,108.0,102.0,13.4,1505.2,335.9,-0.8,1.8,2471.282,13.29,0.063,71.6
2023-03-26T07:34:03,42.805,6.029,0.049,-0.001,-0.02,105.0,109.0,101.0,13.4,1505.2,320.1,-0.8,1.8,2471.283,13.29,0.049,91.2
2023-03-26T07:37:03,42.805,6.029,0.007,0.026,-0.02,105.0,108.0,102.0,13.4,1505.2,321.7,-0.7,1.8,2471.265,13.29,0.026,15.1
2023-03-26T07:40:03,42.805,6.029,0.035,0.01,-0.008,105.0,108.0,102.0,13.3,1505.2,330.4,-0.7,1.8,2471.266,13.29,0.036,74.1
2023-03-26T07:43:03,42.805,6.029,0.066,0.015,0.0,104.0,109.0,102.0,13.4,1505.2,322.0,-0.7,1.8,2471.309,13.29,0.067,77.2
2023-03-26T07:46:03,42.805,6.029,0.054,0.002,0.007,104.0,108.0,102.0,13.4,1505.2,342.8,-0.8,1.8,2471.308,13.29,0.054,87.9
2023-03-26T07:49:03,42.805,6.029,0.069,0.016,-0.01,104.0,108.0,102.0,13.3,1505.2,318.0,-0.7,1.8,2471.264,13.29,0.07,76.9
2023-03-26T07:52:03,42.805,6.029,0.041,0.0,-0.022,105.0,108.0,101.0,13.4,1505.2,335.7,-0.8,1.8,2471.309,13.29,0.041,90.0
2023-03-26T07:55:03,42.805,6.029,0.018,0.039,-0.011,105.0,108.0,103.0,13.3,1505.2,327.1,-0.8,1.8,2471.282,13.29,0.042,24.8
2023-03-26T07:58:03,42.805,6.029,0.021,0.034,-0.024,105.0,108.0,102.0,13.4,1505.2,333.8,-0.8,1.8,2471.241,13.29,0.039,31.7
2023-03-26T08:04:03,42.805,6.029,0.025,0.014,-0.021,105.0,110.0,102.0,13.3,1505.2,315.0,-0.8,1.8,2471.314,13.28,0.028,60.7
2023-03-26T08:07:03,42.805,6.029,0.076,0.004,0.013,104.0,109.0,101.0,13.4,1505.2,333.8,-0.8,1.8,2471.329,13.28,0.076,87.0
2023-03-26T08:10:03,42.805,6.029,0.035,0.021,0.004,106.0,108.0,102.0,13.4,1505.2,327.7,-0.7,1.8,2471.334,13.28,0.04,59.0
2023-03-26T08:13:03,42.805,6.029,0.053,0.023,0.017,104.0,110.0,103.0,13.4,1505.2,342.5,-0.8,1.8,2471.32,13.28,0.057,66.5
2023-03-26T08:16:03,42.805,6.029,0.059,0.019,-0.003,105.0,110.0,101.0,13.4,1505.2,320.1,-0.7,1.8,2471.332,13.28,0.061,72.2
2023-03-26T08:19:03,42.805,6.029,0.036,0.02,-0.022,107.0,109.0,103.0,13.3,1505.2,333.9,-0.8,1.8,2471.32,13.28,0.041,60.9
2023-03-26T08:22:03,42.805,6.029,0.033,0.028,-0.004,105.0,109.0,102.0,13.3,1505.2,335.2,-0.8,1.8,2471.299,13.29,0.043,49.7
2023-03-26T08:25:03,42.805,6.029,0.002,0.008,-0.018,104.0,110.0,102.0,13.4,1505.2,340.5,-0.8,1.8,2471.305,13.29,0.008,14.0
2023-03-26T08:28:03,42.805,6.029,0.045,0.004,-0.01,106.0,106.0,102.0,13.4,1505.2,331.8,-0.7,1.9,2471.311,13.29,0.045,84.9
2023-03-26T08:31:03,42.805,6.029,0.079,0.025,0.005,105.0,108.0,102.0,13.3,1505.2,328.3,-0.8,1.8,2471.326,13.29,0.082,72.4
2023-03-26T08:34:03,42.805,6.029,0.039,0.034,0.004,105.0,110.0,101.0,13.4,1505.2,320.3,-0.7,1.8,2471.356,13.29,0.051,48.9
2023-03-26T08:37:03,42.805,6.029,0.05,0.013,0.003,106.0,108.0,103.0,13.3,1505.2,326.0,-0.8,1.8,2471.311,13.29,0.051,75.4
2023-03-26T08:40:03,42.805,6.029,0.063,0.033,0.009,105.0,108.0,103.0,13.4,1505.2,338.2,-0.7,1.8,2471.294,13.29,0.071,62.4
2023-03-26T08:43:03,42.805,6.029,0.044,0.03,-0.01,105.0,108.0,102.0,13.4,1505.2,321.3,-0.7,1.9,2471.337,13.29,0.053,55.7
2023-03-26T08:46:03,42.805,6.029,0.036,0.031,-0.007,105.0,108.0,103.0,13.4,1505.2,331.9,-0.8,1.8,2471.34,13.29,0.047,49.3
2023-03-26T08:49:03,42.805,6.029,0.051,0.01,0.02,105.0,108.0,101.0,13.4,1505.2,329.6,-0.8,1.8,2471.307,13.29,0.051,78.9
2023-03-26T08:52:03,42.805,6.029,0.034,0.005,0.011,105.0,108.0,102.0,13.4,1505.2,331.0,-0.8,1.8,2471.379,13.29,0.034,81.6
2023-03-26T08:55:03,42.805,6.029,0.062,0.016,0.0,107.0,109.0,102.0,13.3,1505.2,336.1,-0.8,1.8,2471.326,13.29,0.064,75.5
2023-03-26T08:58:03,42.805,6.029,0.027,0.025,0.01,105.0,108.0,103.0,13.4,1505.2,328.5,-0.8,1.8,2471.311,13.29,0.036,47.2
2023-03-26T09:04:03,42.805,6.029,0.023,0.049,0.021,105.0,109.0,102.0,13.3,1505.2,320.1,-0.8,1.8,2471.383,13.28,0.054,25.1
2023-03-26T09:07:03,42.805,6.029,0.034,0.013,-0.003,105.0,109.0,102.0,13.4,1505.2,318.3,-0.8,1.8,2471.366,13.28,0.036,69.1
2023-03-26T09:10:03,42.805,6.029,0.063,0.002,0.024,105.0,110.0,101.0,13.4,1505.2,331.0,-0.8,1.8,2471.398,13.28,0.063,88.2
2023-03-26T09:13:03,42.805,6.029,0.041,0.022,0.003,104.0,109.0,102.0,13.3,1505.2,337.6,-0.8,1.8,2471.387,13.28,0.046,61.8
2023-03-26T09:16:03,42.805,6.029,0.039,0.034,0.017,106.0,109.0,102.0,13.3,1505.2,322.5,-0.8,1.8,2471.394,13.28,0.051,48.9
2023-03-26T09:19:03,42.805,6.029,0.055,0.026,0.012,105.0,108.0,103.0,13.3,1505.2,321.3,-0.7,1.8,2471.35,13.29,0.06,64.7
2023-03-26T09:22:03,42.805,6.029,0.057,0.006,0.024,105.0,109.0,102.0,13.4,1505.2,327.7,-0.8,1.8,2471.333,13.29,0.057,84.0
2023-03-26T09:25:03,42.805,6.029,0.058,0.01,-0.003,105.0,109.0,102.0,13.4,1505.2,326.3,-0.7,1.8,2471.345,13.29,0.058,80.2
2023-03-26T09:28:03,42.805,6.029,0.093,0.015,0.0,104.0,109.0,103.0,13.3,1505.2,336.9,-0.8,1.8,2471.392,13.29,0.094,80.8
2023-03-26T09:31:03,42.805,6.029,0.045,0.029,-0.022,105.0,108.0,103.0,13.4,1505.2,324.4,-0.8,1.8,2471.336,13.29,0.053,57.2
2023-03-26T09:34:03,42.805,6.029,0.012,0.027,-0.022,105.0,109.0,103.0,13.4,1505.2,330.4,-0.7,1.8,2471.353,13.29,0.029,24.0
2023-03-26T09:37:03,42.805,6.029,0.054,0.023,0.031,104.0,109.0,102.0,13.4,1505.2,329.3,-0.7,1.8,2471.32,13.29,0.058,66.9
2023-03-26T09:40:03,42.805,6.029,0.041,0.018,-0.018,104.0,109.0,103.0,13.4,1505.2,334.8,-0.8,1.8,2471.369,13.29,0.044,66.3
2023-03-26T09:43:03,42.805,6.029,0.063,-0.025,-0.006,105.0,109.0,102.0,13.4,1505.2,343.7,-0.8,1.8,2471.393,13.29,0.067,111.6
2023-03-26T09:46:03,42.805,6.029,0.057,0.03,0.001,105.0,109.0,102.0,13.4,1505.2,318.5,-0.8,1.8,2471.339,13.29,0.064,62.2
2023-03-26T09:49:03,42.805,6.029,0.024,0.026,-0.002,105.0,109.0,102.0,13.4,1505.2,329.2,-0.8,1.8,2471.336,13.29,0.035,42.7
2023-03-26T09:52:03,42.805,6.029,0.054,0.039,0.003,105.0,109.0,103.0,13.4,1505.2,322.4,-0.8,1.8,2471.351,13.29,0.066,54.2
2023-03-26T09:55:03,42.805,6.029,0.057,0.015,-0.005,105.0,109.0,102.0,13.4,1505.2,337.8,-0.8,1.8,2471.334,13.29,0.058,75.3
2023-03-26T09:58:03,42.805,6.029,0.071,0.025,0.026,104.0,109.0,102.0,13.4,1505.2,324.4,-0.8,1.8,2471.316,13.29,0.075,70.6
2023-03-26T10:04:03,42.805,6.029,0.017,0.03,-0.021,106.0,108.0,102.0,13.3,1505.2,321.6,-0.8,1.8,2471.362,13.28,0.034,29.5
2023-03-26T10:07:03,42.805,6.029,0.057,0.044,-0.001,104.0,108.0,101.0,13.3,1505.2,325.3,-0.8,1.8,2471.408,13.28,0.072,52.3